Location: Bratislava
(48.1500°N, 17.1170°E)
Time: 12:12:54
(UTC+01:00)

N. Korean satellite - Pass Details

Date: 28 January 2019
Orbit: 457 x 510 km, 97.2° (Epoch: 17 February)

Event Time Altitude Azimuth Distance (km) Brightness Sun altitude
Rises 05:41:05 0° 19° (NNE) 2,608 10.4 -17.3°
Reaches altitude 10° 05:43:19 10° 28° (NNE) 1,711 9.6 -17.0°
Maximum altitude 05:46:44 36° 97° (E) 795 8.3 -16.4°
Drops below altitude 10° 05:50:05 10° 166° (SSE) 1,669 9.6 -15.8°
Sets 05:52:14 0° 175° (S) 2,534 10.4 -15.5°
